Satellite: MET-3/5
Catalog number: 21655
Epoch time:      06032.83556937
Element set:    0030
Inclination:      082.5587 deg
RA of node:       356.4178 deg
Eccentricity:    0.0013893
Arg of perigee:   024.3223 deg
Mean anomaly:     335.8539 deg
Mean motion:   13.17006251 rev/day
Decay rate:        5.1e-07 rev/day^2
Epoch rev:           69554
Checksum:              304

Satellite: MET-2/21
Catalog number: 22782
Epoch time:      06032.58479989
Element set:     419
Inclination:      082.5432 deg
RA of node:       079.0308 deg
Eccentricity:    0.0022004
Arg of perigee:   196.2192 deg
Mean anomaly:     163.8285 deg
Mean motion:   13.83600897 rev/day
Decay rate:        5.9e-07 rev/day^2
Epoch rev:           62729
Checksum:              328

Satellite: OKEAN-4
Catalog number: 23317
Epoch time:      06033.75290085
Element set:     854
Inclination:      082.5370 deg
RA of node:       042.3855 deg
Eccentricity:    0.0024060
Arg of perigee:   096.7261 deg
Mean anomaly:     263.6704 deg
Mean motion:   14.82304334 rev/day
Decay rate:       2.03e-06 rev/day^2
Epoch rev:           61006
Checksum:              268

Satellite: NOAA-14
Catalog number: 23455
Epoch time:      06033.46690783
Element set:     979
Inclination:      099.0581 deg
RA of node:       090.1834 deg
Eccentricity:    0.0010006
Arg of perigee:   073.1540 deg
Mean anomaly:     287.0709 deg
Mean motion:   14.13633482 rev/day
Decay rate:        5.5e-07 rev/day^2
Epoch rev:           57203
Checksum:              294

Satellite: SICH-1
Catalog number: 23657
Epoch time:      06032.77820308
Element set:    0661
Inclination:      082.5280 deg
RA of node:       184.1619 deg
Eccentricity:    0.0025710
Arg of perigee:   087.9863 deg
Mean anomaly:     272.4273 deg
Mean motion:   14.81307006 rev/day
Decay rate:       1.71e-06 rev/day^2
Epoch rev:           56194
Checksum:              295

Satellite: NOAA-15
Catalog number: 25338
Epoch time:      06033.31020929
Element set:     383
Inclination:      098.5154 deg
RA of node:       039.6537 deg
Eccentricity:    0.0011381
Arg of perigee:   049.9851 deg
Mean anomaly:     310.2325 deg
Mean motion:   14.24561975 rev/day
Decay rate:        5.7e-07 rev/day^2
Epoch rev:           40151
Checksum:              288

Satellite: RESURS
Catalog number: 25394
Epoch time:      06033.87725612
Element set:     291
Inclination:      098.5111 deg
RA of node:       101.1942 deg
Eccentricity:    0.0001097
Arg of perigee:   175.5612 deg
Mean anomaly:     184.5577 deg
Mean motion:   14.24094840 rev/day
Decay rate:       -3.1e-07 rev/day^2
Epoch rev:           39328
Checksum:              285

Satellite: FENGYUN1
Catalog number: 25730
Epoch time:      06033.53813497
Element set:     640
Inclination:      098.6185 deg
RA of node:       031.2271 deg
Eccentricity:    0.0014425
Arg of perigee:   161.0776 deg
Mean anomaly:     199.0930 deg
Mean motion:   14.11807504 rev/day
Decay rate:       2.10e-06 rev/day^2
Epoch rev:           34701
Checksum:              266

Satellite: OKEAN-0
Catalog number: 25860
Epoch time:      06032.92677884
Element set:    0658
Inclination:      097.7416 deg
RA of node:       053.5098 deg
Eccentricity:    0.0001086
Arg of perigee:   116.0529 deg
Mean anomaly:     244.0790 deg
Mean motion:   14.73334921 rev/day
Decay rate:        8.5e-07 rev/day^2
Epoch rev:           35183
Checksum:              312

Satellite: NOAA-16
Catalog number: 26536
Epoch time:      06033.32901266
Element set:     733
Inclination:      099.0504 deg
RA of node:       358.4905 deg
Eccentricity:    0.0010827
Arg of perigee:   135.9537 deg
Mean anomaly:     224.2526 deg
Mean motion:   14.12310739 rev/day
Decay rate:      -1.08e-06 rev/day^2
Epoch rev:           27654
Checksum:              293

Satellite: NOAA-17
Catalog number: 27453
Epoch time:      06033.45197992
Element set:     757
Inclination:      098.6370 deg
RA of node:       108.2071 deg
Eccentricity:    0.0012620
Arg of perigee:   106.5170 deg
Mean anomaly:     253.7402 deg
Mean motion:   14.23747969 rev/day
Decay rate:       2.56e-06 rev/day^2
Epoch rev:           18760
Checksum:              309

Satellite: NOAA-18
Catalog number: 28654
Epoch time:      06033.47073298
Element set:     344
Inclination:      098.7753 deg
RA of node:       339.7330 deg
Eccentricity:    0.0013644
Arg of perigee:   242.4779 deg
Mean anomaly:     117.5017 deg
Mean motion:   14.10927826 rev/day
Decay rate:       3.50e-06 rev/day^2
Epoch rev:            3638
Checksum:              317

/EX
SB KEPS @ AMSAT  $ORB06033.M
Orbital Elements  06033.MISC

HR AMSAT ORBITAL ELEMENTS FOR MANNED AND MISCELLANEOUS SATELLITES
FROM WA5QGD FORT WORTH,TX February 2, 2006
Send SUBSCRIBE KEPS/UNSUBSCRIBE KEPS to majordomo@amsat.org only
BID: ORB06033.M
TO ALL RADIO AMATEURS BT

Satellite: HUBBLE
Catalog number: 20580
Epoch time:      06033.62710490
Element set:     537
Inclination:      028.4651 deg
RA of node:       207.0139 deg
Eccentricity:    0.0004206
Arg of perigee:   197.9472 deg
Mean anomaly:     162.0960 deg
Mean motion:   14.99957911 rev/day
Decay rate:       4.26e-06 rev/day^2
Epoch rev:           66487
Checksum:              301

Satellite: UARS
Catalog number: 21701
Epoch time:      06033.28720107
Element set:     678
Inclination:      056.9810 deg
RA of node:       313.1676 deg
Eccentricity:    0.0103108
Arg of perigee:   312.9644 deg
Mean anomaly:     046.2767 deg
Mean motion:   15.42040120 rev/day
Decay rate:      4.895e-05 rev/day^2
Epoch rev:           78848
Checksum:              289

